EHI
1 2 4 6 6 5 4 2 1 1 0 0 0 0 0 1 0 0 1 1 1 0 0 0 0 0 0 0 0 0 0 0 0 0 0 0 0 0 0 0 0 0 0
2 3 5 7 8 6 5 4 3 2 1 0 0 0 1 1 1 0 0 0 0 0 0 0 0 0 0 0 0 0 0 0 0 0 0 0 0 0 0 0 0 0 0
3 3 6 9 10 8 6 6 5 3 1 0 0 0 1 1 1 0 0 0 0 0 0 0 0 0 0 0 0 0 0 0 0 0 0 0 0 0 0 0 0 0 0
3 2 5 11 12 8 6 5 4 2 0 0 0 0 0 1 1 0 0 0 0 0 0 0 0 0 0 0 0 0 0 0 0 0 0 0 0 0 0 0 0 0 0
2 1 5 10 11 8 5 4 3 1 0 0 0 0 0 1 2 1 0 0 0 0 0 0 0 0 0 0 0 0 0 0 0 0 0 0 0 0 0 0 0 0 0
1 0 4 8 9 6 3 2 2 1 0 0 0 0 0 1 1 1 0 0 0 0 0 0 0 0 0 0 0 0 0 0 0 0 0 0 0 0 0 0 0 0 0
0 0 2 5 6 4 2 1 1 1 0 0 0 0 0 0 0 1 1 1 0 0 0 0 0 0 0 0 0 0 0 0 0 0 0 0 0 0 0 0 0 0 0
0 0 1 3 4 3 2 1 0 0 0 0 0 1 1 0 0 1 2 2 1 0 0 0 0 0 0 0 0 0 0 0 0 0 0 0 0 0 0 0 0 0 0
0 1 1 1 2 3 2 1 0 0 0 1 1 1 1 0 0 1 3 3 1 0 0 0 0 0 0 0 0 0 0 0 0 0 0 0 0 0 0 0 0 0 0
1 2 2 1 1 2 2 1 0 0 0 1 1 1 1 0 0 1 2 1 0 0 0 0 0 0 0 0 0 0 0 0 0 0 0 0 0 0 0 0 0 0 0
1 2 2 1 1 2 2 1 1 1 0 1 1 0 0 0 0 0 0 0 0 0 0 0 0 0 0 0 0 0 0 0 0 0 0 0 0 0 0 0 0 0 0
0 1 1 0 0 1 1 2 2 2 1 0 0 0 0 0 0 0 0 0 0 0 0 0 0 0 0 0 0 0 0 0 0 0 0 0 0 0 0 0 0 0 0
0 0 0 0 0 0 0 1 3 2 1 0 0 0 0 0 0 0 0 0 0 0 0 0 0 0 0 0 0 0 0 0 0 0 0 0 0 0 0 0 0 0 0
0 0 0 0 0 0 0 1 2 2 1 0 0 0 0 0 0 0 0 0 1 0 0 0 0 0 0 0 0 0 0 0 0 0 0 0 0 0 0 0 0 0 0
0 0 0 0 0 0 0 0 1 1 0 0 0 0 0 0 0 0 0 0 0 0 0 0 0 0 0 0 0 0 0 0 0 0 0 0 0 0 0 0 0 0 0
0 0 0 0 0 0 0 0 0 0 0 0 0 0 0 0 0 0 0 0 0 0 0 0 0 0 0 0 0 0 0 0 0 0 0 0 0 0 0 0 0 0 0
0 0 0 0 0 0 0 0 0 0 0 0 0 0 0 0 0 0 0 0 0 0 0 0 0 0 0 0 0 0 0 0 0 0 0 0 0 0 0 0 0 0 0
0 0 0 0 0 0 0 0 0 0 0 0 0 0 0 0 0 0 0 0 0 0 0 0 0 0 0 0 0 0 0 0 0 0 0 0 0 0 0 0 0 0 0
0 0 0 0 0 0 0 0 0 0 0 0 0 0 0 0 0 0 0 0 0 0 0 0 0 0 0 0 0 0 0 0 0 0 0 0 0 0 0 0 0 0 0
0 0 0 0 0 0 0 0 0 0 0 0 0 0 0 0 0 0 0 0 0 0 0 0 0 0 0 0 0 0 0 0 0 0 0 0 0 0 0 0 0 0 0
0 0 0 0 0 0 0 0 0 0 0 0 0 0 0 0 0 0 0 0 0 0 0 0 0 0 0 0 0 0 0 0 0 0 0 0 0 0 0 0 0 0 0
0 0 0 0 0 0 0 0 0 0 0 0 0 0 0 0 0 0 0 0 0 0 0 0 0 0 0 0 0 0 0 0 0 0 0 0 0 0 0 0 0 0 0
0 0 0 0 0 0 0 0 0 0 0 0 0 0 0 0 0 0 0 0 0 0 0 0 0 0 0 0 0 0 0 0 0 0 0 0 0 0 0 0 0 0 0
0 0 0 0 0 0 0 0 0 0 0 0 0 0 0 0 0 0 0 0 0 0 0 0 0 0 0 0 0 0 0 0 0 0 0 0 0 0 0 0 0 0 0
0 0 0 0 0 0 0 0 0 0 0 0 0 0 0 0 0 0 0 0 0 0 0 0 0 0 0 0 0 0 0 0 0 0 0 0 0 0 0 0 0 0 0
0 0 0 0 0 0 0 0 0 0 0 0 0 0 0 0 0 0 0 0 0 0 0 0 0 0 0 0 0 0 0 0 0 0 0 0 0 0 0 0 0 0 0
Wind_Speed
1 1 4 5 5 5 5 6 6 6 6 6 6 6 6 6 7 7 7 7 7 7 7 8 9 10 10 11 11 12 12 12 12 12 11 11 12 12 12 12 11 8 13
3 3 4 5 5 5 6 6 6 6 5 5 5 5 5 6 6 6 6 6 6 6 7 8 9 9 9 10 10 10 11 11 11 11 10 8 9 11 12 11 11 8 13
4 3 4 5 6 6 6 6 6 5 5 5 5 5 5 5 5 5 5 5 5 5 6 7 8 8 8 9 9 9 10 10 10 9 8 4 6 10 11 10 11 12 12
5 4 4 6 6 6 6 6 5 5 4 4 5 5 5 5 5 4 4 5 5 5 6 7 7 7 8 8 8 8 8 9 8 7 4 3 3 9 10 10 10 11 11
5 3 4 6 6 6 6 6 5 4 4 4 4 4 4 4 4 4 4 4 5 5 6 6 7 7 7 7 7 7 8 8 7 5 3 2 2 8 9 10 10 10 10
4 3 3 5 5 5 5 5 5 4 4 3 3 4 4 4 4 4 4 4 5 6 6 6 6 6 7 6 6 7 6 7 6 3 2 2 2 7 9 10 10 10 10
4 2 2 4 5 5 5 5 4 4 3 3 3 3 3 3 3 4 4 4 5 5 6 6 6 6 6 6 6 6 6 6 4 3 3 2 3 8 9 9 9 9 10
4 3 2 4 5 4 4 4 4 4 3 3 3 3 3 3 4 4 4 4 5 5 6 5 5 5 6 6 6 6 6 5 5 4 2 2 5 8 9 9 9 9 10
4 3 2 2 2 3 3 3 3 3 3 3 3 3 3 3 3 3 4 4 5 5 5 5 5 4 5 5 6 6 5 5 4 2 3 2 5 8 9 9 9 10 10
3 3 2 2 2 1 1 2 3 3 3 3 4 3 3 2 2 3 3 4 4 5 5 4 5 5 4 4 5 5 5 4 3 2 1 2 6 8 9 9 9 10 9
2 1 1 1 1 1 1 1 2 2 3 3 3 4 3 1 1 1 2 3 4 4 4 4 4 4 3 3 3 4 3 2 2 1 1 3 6 8 9 9 9 9 9
2 1 1 1 1 1 1 1 1 1 1 2 2 2 2 1 1 1 2 2 3 3 3 4 4 3 2 1 1 2 1 2 2 1 1 4 7 8 8 8 9 9 9
3 2 1 1 1 1 0 1 0 0 1 1 1 1 1 1 1 1 1 1 1 2 1 2 2 1 1 1 1 1 2 2 1 1 2 5 6 7 8 8 8 8 8
3 2 2 2 1 1 1 1 1 1 0 0 0 1 1 1 1 0 0 1 1 1 1 1 1 1 1 1 2 2 2 2 1 1 1 4 5 7 7 8 7 7 7
3 3 2 2 2 2 2 1 1 1 1 1 0 1 1 1 0 0 1 1 1 1 2 2 1 1 1 1 1 2 2 2 2 2 1 3 5 6 7 7 7 7 7
4 3 3 3 2 2 2 2 1 1 1 1 1 1 1 1 1 1 1 1 1 1 2 2 2 2 1 1 1 1 2 2 2 2 1 2 4 5 6 7 7 7 6
5 4 3 3 2 2 2 2 2 1 1 1 1 2 2 2 2 1 1 1 1 1 2 2 2 2 2 2 1 1 2 2 3 2 2 1 2 3 5 6 7 7 6
5 4 4 2 2 3 2 2 2 1 1 1 1 2 2 2 3 2 1 1 1 1 1 2 2 2 2 2 1 0 1 2 3 2 2 2 2 1 3 5 6 6 6
6 5 4 2 3 3 2 2 2 2 1 1 1 1 2 2 2 2 2 1 2 2 2 2 2 2 2 2 1 1 1 2 2 3 3 2 2 2 2 3 4 5 5
5 4 4 3 3 3 2 1 1 1 1 1 1 1 1 2 2 2 1 2 2 2 2 2 2 2 2 2 2 2 2 1 1 2 3 2 2 2 2 2 2 2 3
4 4 3 3 3 3 2 2 1 1 1 1 1 1 1 1 2 2 1 1 2 2 2 3 3 3 2 2 3 2 3 3 2 2 2 2 3 2 2 2 2 1 1
4 3 3 3 3 3 3 2 2 2 1 1 1 0 1 1 1 1 2 2 2 2 3 3 4 2 1 1 2 3 1 1 1 1 1 2 2 2 2 2 2 2 1
4 4 3 3 3 3 3 2 2 1 1 1 0 1 1 1 1 1 2 2 2 3 3 4 4 4 3 1 1 3 3 3 1 1 0 1 2 1 1 1 1 1 1
5 4 3 3 3 3 3 3 4 3 2 2 1 1 1 1 1 2 2 2 2 2 3 4 4 3 4 3 1 1 1 3 3 1 1 0 1 1 1 1 1 1 1
4 4 3 3 2 2 3 4 4 3 2 1 1 1 1 0 1 1 2 2 2 2 3 3 3 3 3 3 3 1 1 1 1 2 2 1 1 1 1 1 1 1 1
3 3 2 3 2 2 3 4 5 4 3 2 2 2 1 1 1 1 1 1 2 2 3 3 3 4 3 3 3 2 2 2 2 2 2 2 2 2 1 1 2 2 1
Wind_Direction
185 203 114 103 96 91 93 94 92 95 99 100 102 99 95 95 95 93 99 100 100 101 103 103 106 104 102 100 97 95 94 92 89 89 85 86 89 90 90 87 84 79 85
163 152 111 102 100 93 94 95 92 94 97 101 106 110 106 105 102 98 99 102 103 107 108 108 106 107 107 106 104 101 99 97 93 88 81 79 85 90 94 91 90 90 89
127 127 117 97 97 95 93 94 90 95 96 103 107 114 116 114 108 105 106 106 106 105 109 107 106 106 106 109 109 107 106 102 96 86 80 73 88 96 97 95 95 94 93
125 120 114 98 97 92 90 91 92 100 97 101 106 108 116 116 118 117 116 115 114 113 113 108 108 109 108 109 111 111 111 106 93 85 77 75 90 104 104 102 101 99 96
111 111 110 99 96 89 85 85 86 102 106 105 105 106 111 116 121 121 118 119 120 118 114 113 113 114 116 113 113 114 109 101 85 78 75 83 91 111 109 106 105 103 99
105 101 112 100 98 90 82 79 80 90 99 106 108 109 110 113 121 116 115 118 121 120 114 115 120 120 121 122 121 117 107 94 84 73 84 104 109 119 114 111 109 108 105
113 103 109 95 97 95 88 78 77 87 91 98 106 113 115 113 124 130 121 121 120 120 118 119 124 128 130 126 124 118 106 91 90 88 95 110 127 127 123 119 114 111 108
116 95 85 84 79 80 84 84 74 78 74 77 89 99 106 113 123 129 135 136 127 122 120 125 125 129 135 130 124 115 105 94 95 100 104 118 131 128 127 124 119 114 109
110 99 76 79 77 71 72 79 72 68 65 60 71 75 77 91 111 126 129 139 138 131 126 128 130 129 136 133 119 106 100 92 92 101 115 122 131 129 126 126 122 117 112
99 97 87 68 66 58 62 78 73 66 68 56 51 54 60 70 90 113 116 127 133 135 132 134 135 132 129 123 115 105 98 88 88 92 103 137 134 133 129 127 124 121 116
97 101 106 82 58 49 54 68 66 58 63 64 53 47 49 64 87 119 118 116 124 132 135 139 136 133 118 118 111 99 92 91 98 99 126 150 148 139 133 130 127 125 120
166 171 140 123 91 63 53 54 44 40 59 72 70 59 48 53 70 90 95 116 122 125 134 137 137 132 117 107 104 98 96 101 107 119 141 143 146 141 138 136 133 127 123
189 189 186 170 157 134 102 95 67 51 62 66 74 67 65 57 41 53 72 88 121 126 125 131 135 123 118 122 118 113 114 107 117 126 142 143 145 144 141 138 135 131 128
182 196 200 186 176 176 156 160 149 117 108 88 72 87 88 82 45 11 110 129 131 149 139 120 127 121 121 130 137 130 122 116 122 118 131 137 143 146 145 142 142 137 134
182 189 200 193 193 186 160 173 147 155 178 180 153 124 124 123 160 215 182 169 166 158 153 141 138 131 131 127 127 130 128 129 131 126 117 130 134 141 149 147 145 144 139
186 193 199 198 196 178 170 173 175 170 181 184 186 179 169 160 181 170 173 177 183 172 167 159 158 152 156 135 119 131 130 131 129 126 109 115 124 135 144 147 146 144 142
188 187 193 195 183 176 176 182 174 182 179 189 205 179 178 174 175 169 180 184 197 169 154 143 143 137 135 115 104 126 125 123 123 123 119 102 110 119 131 137 141 139 138
179 179 190 187 175 179 176 174 177 181 178 197 202 182 182 179 171 160 167 188 179 141 146 151 150 135 126 116 103 92 112 115 114 117 112 105 97 97 119 121 130 135 135
179 178 180 184 182 183 176 172 173 173 176 193 187 177 182 180 169 160 166 177 151 130 144 161 152 145 138 126 113 74 77 106 122 115 107 105 105 98 98 106 109 117 128
174 173 174 180 183 179 166 148 139 135 168 175 180 181 180 187 175 158 159 160 149 137 139 134 136 124 136 137 109 68 43 57 98 116 121 109 99 98 94 93 93 90 113
160 165 171 177 184 169 160 166 175 197 203 195 185 172 172 186 170 154 158 166 162 154 153 137 130 126 114 117 100 78 40 39 54 75 104 104 95 89 92 93 89 76 89
165 170 178 188 184 185 177 175 178 178 200 201 186 189 198 175 167 168 161 179 166 142 141 144 139 135 126 128 132 122 92 27 25 29 85 113 110 99 97 94 102 99 86
177 184 186 195 192 187 169 143 118 86 54 40 212 224 255 180 168 166 171 177 168 164 166 162 158 157 163 171 144 143 153 187 172 345 38 109 120 119 123 125 112 113 115
194 188 187 192 189 187 167 163 167 171 189 216 213 216 249 208 180 168 171 168 178 178 174 177 171 161 159 174 171 99 136 149 149 160 310 336 140 156 160 134 132 126 123
188 182 184 179 180 182 178 175 174 182 196 188 179 189 208 231 198 178 174 174 181 182 180 183 167 164 167 171 171 154 108 85 131 155 193 231 297 241 192 180 174 182 186
181 176 176 174 186 181 178 181 179 184 184 174 183 192 205 222 224 215 194 192 195 189 185 186 173 172 173 168 172 170 164 173 178 160 177 197 230 266 253 211 193 202 206